Location: Cuiry
(49.3858°N, 3.7708°E)
Time: 07:14:12
(UTC+00:00)

Resurs 01 Rocket - Pass Details

Date: 12 January 2026
Orbit: 628 x 635 km, 97.7° (Epoch: 18 February)

Event Time Altitude Azimuth Distance (km) Brightness Sun altitude
Rises 18:47:21 0° 170° (S) 2,903 5.0 -24.8°
Enters shadow 18:47:22 - 170° (S) 2,893 5.0 -24.8°
Exits shadow 18:53:23 64° 211° (SSW) 701 1.8 -25.8°
Maximum altitude 18:53:53 71° 258° (WSW) 667 1.7 -25.9°
Drops below altitude 10° 18:58:16 10° 343° (NNW) 2,017 4.3 -26.6°
Sets 19:00:30 0° 345° (NNW) 2,930 5.2 -27.0°
